Regional Weather Roundup
Issued by NWS

Home | Current Version | Previous Version | Text Only | Print | Product List | Glossary Off
Versions: 1 2 3 4 5 6 7 8 9 10 11 12 13 14 15 16 17 18 19 20 21 22 23 24 25 26 27

000
ASUS45 KCYS 011910
RWRWY

WYOMING REGIONAL WEATHER ROUNDUP
NATIONAL WEATHER SERVICE CHEYENNE WY
100 PM MDT SUN MAY 01 2016

NOTE:  "FAIR" INDICATES FEW OR NO CLOUDS BELOW 12,000 FEET
WITH NO SIGNIFICANT WEATHER AND/OR OBSTRUCTIONS TO VISIBILITY.

WYZ001-012000-
YELLOWSTONE NATIONAL PARK

CITY           SKY/WX    TMP DP  RH WIND       PRES   REMARKS
LK YELLOWSTONE   N/A     41  17  38 VRB5      30.30F
W YELLOWSTONE  NOT AVBL

$$
WYZ002>013-054>058-071-098>099-012000-
NORTHERN WYOMING

CITY           SKY/WX    TMP DP  RH WIND       PRES   REMARKS
JACKSON        SUNNY     52  19  28 N17G25    30.22F
CODY           FAIR      50  27  40 E5        30.29F
GREYBULL       FAIR      57  26  30 VRB3G18   30.27F
WORLAND        FAIR      54  30  40 NW7       30.28F
SHERIDAN       FAIR      55  28  35 VRB7      30.30F
BUFFALO          N/A    N/A N/A N/A MISG      30.31F
GILLETTE       FAIR      50  28  42 NE8       30.30F
HULETT         FAIR      52  28  40 CALM      30.30F
NEWCASTLE      FAIR      54  21  28 CALM      30.28F

$$
WYZ014>020-022>026-101>103-012000-
CENTRAL WYOMING

CITY           SKY/WX    TMP DP  RH WIND       PRES   REMARKS
BIG PINEY      CLOUDY    43  20  39 N5        30.25F
PINEDALE       FAIR      45  19  36 NE12G23   30.25S
DUBOIS         NOT AVBL
LANDER         CLOUDY    42  29  59 NW9       30.31F
RIVERTON       CLOUDY    43  30  60 NE5       30.32F
CASPER         FAIR      47  25  42 E7        30.30F
DOUGLAS        PTSUNNY   47  26  44 VRB5      30.31F

$$
WYZ021-027>030-104>119-012000-
SOUTHERN WYOMING

CITY           SKY/WX    TMP DP  RH WIND       PRES   REMARKS
EVANSTON       PTSUNNY   40  22  48 E32G38    30.18F WCI  28
KEMMERER       MOCLDY    39  23  52 E29G43    30.22F WCI  28
FORT BRIDGER   CLOUDY    39  25  56 E16G31    30.25F WCI  30
ROCK SPRINGS   FAIR      42  24  49 NE32G43   30.21F
DIXON          FAIR      48  23  37 E17G24    30.16F
RAWLINS        FAIR      40  23  50 NE24G31   30.26F WCI  29
SARATOGA       FAIR      41  23  48 W3G24     30.22F
LARAMIE        CLOUDY    33  19  56 NE8       30.26F WCI  26
CHEYENNE       FAIR      36  21  54 NE10      30.29F WCI  28
TORRINGTON     FAIR      49  25  39 NW8       30.29F
PINE BLUFFS    FAIR      41  30  65 N17       30.30F

$$




USA.gov is the U.S. government's official web portal to all federal, state and local government web resources and services.